Year,Month,Day,Hour,Minute,Value (Times are PST for barometer in hPa)
2008,01,04,00,00,993.80
2008,01,04,00,01,993.80
2008,01,04,00,02,993.84
2008,01,04,00,03,993.80
2008,01,04,00,04,993.77
2008,01,04,00,05,993.77
2008,01,04,00,06,993.74
2008,01,04,00,07,993.74
2008,01,04,00,08,993.74
2008,01,04,00,09,993.70
2008,01,04,00,10,993.67
2008,01,04,00,11,993.67
2008,01,04,00,12,993.67
2008,01,04,00,13,993.63
2008,01,04,00,14,993.67
2008,01,04,00,15,993.63
2008,01,04,00,16,993.63
2008,01,04,00,17,993.60
2008,01,04,00,18,993.57
2008,01,04,00,19,993.57
2008,01,04,00,20,993.50
2008,01,04,00,21,993.47
2008,01,04,00,22,993.43
2008,01,04,00,23,993.43
2008,01,04,00,24,993.40
2008,01,04,00,25,993.40
2008,01,04,00,26,993.36
2008,01,04,00,27,993.36
2008,01,04,00,28,993.36
2008,01,04,00,29,993.30
2008,01,04,00,30,993.23
2008,01,04,00,31,993.23
2008,01,04,00,32,993.19
2008,01,04,00,33,993.16
2008,01,04,00,34,993.16
2008,01,04,00,35,993.16
2008,01,04,00,36,993.16
2008,01,04,00,37,993.16
2008,01,04,00,38,993.13
2008,01,04,00,39,993.09
2008,01,04,00,40,992.99
2008,01,04,00,41,992.92
2008,01,04,00,42,992.99
2008,01,04,00,43,993.06
2008,01,04,00,44,993.13
2008,01,04,00,45,993.16
2008,01,04,00,46,993.19
2008,01,04,00,47,993.16
2008,01,04,00,48,993.09
2008,01,04,00,49,993.03
2008,01,04,00,50,992.92
2008,01,04,00,51,992.92
2008,01,04,00,52,992.92
2008,01,04,00,53,992.89
2008,01,04,00,54,992.89
2008,01,04,00,55,992.86
2008,01,04,00,56,992.79
2008,01,04,00,57,992.79
2008,01,04,00,58,992.72
2008,01,04,00,59,992.69
2008,01,04,01,00,992.69
2008,01,04,01,01,992.65
2008,01,04,01,02,992.65
2008,01,04,01,03,992.55
2008,01,04,01,04,992.48
2008,01,04,01,05,992.48
2008,01,04,01,06,992.48
2008,01,04,01,07,992.55
2008,01,04,01,08,992.55
2008,01,04,01,09,992.55
2008,01,04,01,10,992.62
2008,01,04,01,11,992.62
2008,01,04,01,12,992.58
2008,01,04,01,13,992.58
2008,01,04,01,14,992.55
2008,01,04,01,15,992.55
2008,01,04,01,16,992.45
2008,01,04,01,17,992.45
2008,01,04,01,18,992.38
2008,01,04,01,19,992.35
2008,01,04,01,20,992.25
2008,01,04,01,21,992.18
2008,01,04,01,22,992.18
2008,01,04,01,23,992.28
2008,01,04,01,24,992.28
2008,01,04,01,25,992.31
2008,01,04,01,26,992.28
2008,01,04,01,27,992.31
2008,01,04,01,28,992.25
2008,01,04,01,29,992.25
2008,01,04,01,30,992.25
2008,01,04,01,31,992.18
2008,01,04,01,32,992.08
2008,01,04,01,33,992.01
2008,01,04,01,34,991.91
2008,01,04,01,35,991.81
2008,01,04,01,36,991.77
2008,01,04,01,37,991.74
2008,01,04,01,38,991.67
2008,01,04,01,39,991.67
2008,01,04,01,40,991.64
2008,01,04,01,41,991.64
2008,01,04,01,42,991.64
2008,01,04,01,43,991.70
2008,01,04,01,44,991.74
2008,01,04,01,45,991.81
2008,01,04,01,46,991.81
2008,01,04,01,47,991.87
2008,01,04,01,48,991.91
2008,01,04,01,49,991.91
2008,01,04,01,50,992.01
2008,01,04,01,51,992.08
2008,01,04,01,52,992.04
2008,01,04,01,53,992.04
2008,01,04,01,54,992.01
2008,01,04,01,55,992.01
2008,01,04,01,56,992.01
2008,01,04,01,57,991.98
2008,01,04,01,58,992.01
2008,01,04,01,59,991.98
2008,01,04,02,00,992.01
2008,01,04,02,01,992.08
2008,01,04,02,02,992.14
2008,01,04,02,03,992.11
2008,01,04,02,04,992.11
2008,01,04,02,05,992.11
2008,01,04,02,06,992.04
2008,01,04,02,07,991.95
2008,01,04,02,08,991.91
2008,01,04,02,09,991.84
2008,01,04,02,10,991.81
2008,01,04,02,11,991.77
2008,01,04,02,12,991.77
2008,01,04,02,13,991.77
2008,01,04,02,14,991.81
2008,01,04,02,15,991.87
2008,01,04,02,16,991.84
2008,01,04,02,17,991.87
2008,01,04,02,18,991.84
2008,01,04,02,19,991.87
2008,01,04,02,20,991.87
2008,01,04,02,21,991.94
2008,01,04,02,22,991.84
2008,01,04,02,23,991.81
2008,01,04,02,24,991.77
2008,01,04,02,25,991.74
2008,01,04,02,26,991.67
2008,01,04,02,27,991.58
2008,01,04,02,28,991.53
2008,01,04,02,29,991.47
2008,01,04,02,30,991.40
2008,01,04,02,31,991.26
2008,01,04,02,32,991.23
2008,01,04,02,33,991.20
2008,01,04,02,34,991.13
2008,01,04,02,35,991.09
2008,01,04,02,36,991.03
2008,01,04,02,37,991.03
2008,01,04,02,38,990.96
2008,01,04,02,39,990.93
2008,01,04,02,40,990.93
2008,01,04,02,41,990.86
2008,01,04,02,42,990.76
2008,01,04,02,43,990.69
2008,01,04,02,44,990.62
2008,01,04,02,45,990.59
2008,01,04,02,46,990.49
2008,01,04,02,47,990.35
2008,01,04,02,48,990.32
2008,01,04,02,49,990.25
2008,01,04,02,50,990.21
2008,01,04,02,51,990.21
2008,01,04,02,52,990.21
2008,01,04,02,53,990.21
2008,01,04,02,54,990.21
2008,01,04,02,55,990.15
2008,01,04,02,56,990.01
2008,01,04,02,57,989.94
2008,01,04,02,58,989.88
2008,01,04,02,59,989.88
2008,01,04,03,00,989.84
2008,01,04,03,01,989.77
2008,01,04,03,02,989.64
2008,01,04,03,03,989.64
2008,01,04,03,04,989.60
2008,01,04,03,05,989.54
2008,01,04,03,06,989.50
2008,01,04,03,07,989.47
2008,01,04,03,08,989.54
2008,01,04,03,09,989.57
2008,01,04,03,10,989.67
2008,01,04,03,11,989.67
2008,01,04,03,12,989.64
2008,01,04,03,13,989.60
2008,01,04,03,14,989.57
2008,01,04,03,15,989.50
2008,01,04,03,16,989.47
2008,01,04,03,17,989.50
2008,01,04,03,18,989.44
2008,01,04,03,19,989.47
2008,01,04,03,20,989.44
2008,01,04,03,21,989.37
2008,01,04,03,22,989.30
2008,01,04,03,23,989.30
2008,01,04,03,24,989.30
2008,01,04,03,25,989.30
2008,01,04,03,26,989.27
2008,01,04,03,27,989.27
2008,01,04,03,28,989.27
2008,01,04,03,29,989.27
2008,01,04,03,30,989.23
2008,01,04,03,31,989.13
2008,01,04,03,32,989.13
2008,01,04,03,33,989.10
2008,01,04,03,34,989.10
2008,01,04,03,35,989.06
2008,01,04,03,36,989.03
2008,01,04,03,37,989.00
2008,01,04,03,38,988.96
2008,01,04,03,39,988.96
2008,01,04,03,40,988.86
2008,01,04,03,41,988.79
2008,01,04,03,42,988.72
2008,01,04,03,43,988.66
2008,01,04,03,44,988.66
2008,01,04,03,45,988.62
2008,01,04,03,46,988.59
2008,01,04,03,47,988.52
2008,01,04,03,48,988.49
2008,01,04,03,49,988.45
2008,01,04,03,50,988.39
2008,01,04,03,51,988.35
2008,01,04,03,52,988.35
2008,01,04,03,53,988.32
2008,01,04,03,54,988.28
2008,01,04,03,55,988.22
2008,01,04,03,56,988.18
2008,01,04,03,57,988.15
2008,01,04,03,58,988.11
2008,01,04,03,59,988.08
2008,01,04,04,00,988.01
2008,01,04,04,01,988.01
2008,01,04,04,02,987.98
2008,01,04,04,03,987.98
2008,01,04,04,04,987.91
2008,01,04,04,05,987.84
2008,01,04,04,06,987.81
2008,01,04,04,07,987.81
2008,01,04,04,08,987.74
2008,01,04,04,09,987.71
2008,01,04,04,10,987.64
2008,01,04,04,11,987.64
2008,01,04,04,12,987.51
2008,01,04,04,13,987.54
2008,01,04,04,14,987.47
2008,01,04,04,15,987.40
2008,01,04,04,16,987.37
2008,01,04,04,17,987.30
2008,01,04,04,18,987.30
2008,01,04,04,19,987.27
2008,01,04,04,20,987.23
2008,01,04,04,21,987.17
2008,01,04,04,22,987.13
2008,01,04,04,23,987.06
2008,01,04,04,24,987.00
2008,01,04,04,25,986.96
2008,01,04,04,26,986.90
2008,01,04,04,27,986.86
2008,01,04,04,28,986.90
2008,01,04,04,29,986.83
2008,01,04,04,30,986.76
2008,01,04,04,31,986.69
2008,01,04,04,32,986.66
2008,01,04,04,33,986.59
2008,01,04,04,34,986.59
2008,01,04,04,35,986.59
2008,01,04,04,36,986.52
2008,01,04,04,37,986.49
2008,01,04,04,38,986.49
2008,01,04,04,39,986.46
2008,01,04,04,40,986.46
2008,01,04,04,41,986.42
2008,01,04,04,42,986.42
2008,01,04,04,43,986.32
2008,01,04,04,44,986.25
2008,01,04,04,45,986.25
2008,01,04,04,46,986.22
2008,01,04,04,47,986.12
2008,01,04,04,48,986.08
2008,01,04,04,49,986.02
2008,01,04,04,50,985.91
2008,01,04,04,51,985.85
2008,01,04,04,52,985.74
2008,01,04,04,53,985.78
2008,01,04,04,54,985.78
2008,01,04,04,55,985.71
2008,01,04,04,56,985.64
2008,01,04,04,57,985.61
2008,01,04,04,58,985.64
2008,01,04,04,59,985.64
2008,01,04,05,00,985.57
2008,01,04,05,01,985.54
2008,01,04,05,02,985.41
2008,01,04,05,03,985.37
2008,01,04,05,04,985.20
2008,01,04,05,05,985.20
2008,01,04,05,06,985.17
2008,01,04,05,07,985.13
2008,01,04,05,08,985.07
2008,01,04,05,09,985.10
2008,01,04,05,10,985.07
2008,01,04,05,11,985.00
2008,01,04,05,12,984.93
2008,01,04,05,13,984.90
2008,01,04,05,14,984.86
2008,01,04,05,15,984.83
2008,01,04,05,16,984.73
2008,01,04,05,17,984.66
2008,01,04,05,18,984.59
2008,01,04,05,19,984.49
2008,01,04,05,20,984.42
2008,01,04,05,21,984.39
2008,01,04,05,22,984.36
2008,01,04,05,23,984.32
2008,01,04,05,24,984.25
2008,01,04,05,25,984.19
2008,01,04,05,26,984.15
2008,01,04,05,27,984.15
2008,01,04,05,28,984.08
2008,01,04,05,29,984.05
2008,01,04,05,30,984.05
2008,01,04,05,31,984.02
2008,01,04,05,32,984.02
2008,01,04,05,33,983.95
2008,01,04,05,34,983.92
2008,01,04,05,35,983.85
2008,01,04,05,36,983.81
2008,01,04,05,37,983.75
2008,01,04,05,38,983.75
2008,01,04,05,39,983.75
2008,01,04,05,40,983.64
2008,01,04,05,41,983.61
2008,01,04,05,42,983.54
2008,01,04,05,43,983.44
2008,01,04,05,44,983.41
2008,01,04,05,45,983.34
2008,01,04,05,46,983.34
2008,01,04,05,47,983.17
2008,01,04,05,48,983.14
2008,01,04,05,49,983.04
2008,01,04,05,50,982.93
2008,01,04,05,51,982.93
2008,01,04,05,52,982.90
2008,01,04,05,53,982.87
2008,01,04,05,54,982.80
2008,01,04,05,55,982.80
2008,01,04,05,56,982.76
2008,01,04,05,57,982.76
2008,01,04,05,58,982.73
2008,01,04,05,59,982.70
2008,01,04,06,00,982.63
2008,01,04,06,01,982.59
2008,01,04,06,02,982.63
2008,01,04,06,03,982.63
2008,01,04,06,04,982.63
2008,01,04,06,05,982.63
2008,01,04,06,06,982.63
2008,01,04,06,07,982.56
2008,01,04,06,08,982.49
2008,01,04,06,09,982.43
2008,01,04,06,10,982.43
2008,01,04,06,11,982.36
2008,01,04,06,12,982.39
2008,01,04,06,13,982.39
2008,01,04,06,14,982.32
2008,01,04,06,15,982.26
2008,01,04,06,16,982.15
2008,01,04,06,17,982.12
2008,01,04,06,18,982.05
2008,01,04,06,19,982.02
2008,01,04,06,20,981.99
2008,01,04,06,21,981.82
2008,01,04,06,22,981.78
2008,01,04,06,23,981.75
2008,01,04,06,24,981.68
2008,01,04,06,25,981.59
2008,01,04,06,26,981.51
2008,01,04,06,27,981.38
2008,01,04,06,28,981.34
2008,01,04,06,29,981.31
2008,01,04,06,30,981.31
2008,01,04,06,31,981.21
2008,01,04,06,32,981.21
2008,01,04,06,33,981.14
2008,01,04,06,34,981.04
2008,01,04,06,35,981.00
2008,01,04,06,36,980.97
2008,01,04,06,37,980.90
2008,01,04,06,38,980.90
2008,01,04,06,39,980.80
2008,01,04,06,40,980.80
2008,01,04,06,41,980.73
2008,01,04,06,42,980.66
2008,01,04,06,43,980.63
2008,01,04,06,44,980.63
2008,01,04,06,45,980.60
2008,01,04,06,46,980.53
2008,01,04,06,47,980.46
2008,01,04,06,48,980.36
2008,01,04,06,49,980.22
2008,01,04,06,50,980.16
2008,01,04,06,51,980.12
2008,01,04,06,52,980.12
2008,01,04,06,53,980.06
2008,01,04,06,54,980.02
2008,01,04,06,55,980.02
2008,01,04,06,56,980.06
2008,01,04,06,57,979.99
2008,01,04,06,58,979.95
2008,01,04,06,59,979.82
2008,01,04,07,00,979.82
2008,01,04,07,01,979.78
2008,01,04,07,02,979.78
2008,01,04,07,03,979.75
2008,01,04,07,04,979.75
2008,01,04,07,05,979.68
2008,01,04,07,06,979.65
2008,01,04,07,07,979.58
2008,01,04,07,08,979.55
2008,01,04,07,09,979.55
2008,01,04,07,10,979.48
2008,01,04,07,11,979.41
2008,01,04,07,12,979.38
2008,01,04,07,13,979.34
2008,01,04,07,14,979.31
2008,01,04,07,15,979.24
2008,01,04,07,16,979.14
2008,01,04,07,17,979.11
2008,01,04,07,18,979.11
2008,01,04,07,19,979.02
2008,01,04,07,20,979.01
2008,01,04,07,21,978.88
2008,01,04,07,22,978.84
2008,01,04,07,23,978.84
2008,01,04,07,24,978.73
2008,01,04,07,25,978.63
2008,01,04,07,26,978.60
2008,01,04,07,27,978.46
2008,01,04,07,28,978.36
2008,01,04,07,29,978.33
2008,01,04,07,30,978.26
2008,01,04,07,31,978.23
2008,01,04,07,32,978.23
2008,01,04,07,33,978.23
2008,01,04,07,34,978.16
2008,01,04,07,35,978.16
2008,01,04,07,36,978.19
2008,01,04,07,37,978.16
2008,01,04,07,38,978.19
2008,01,04,07,39,978.16
2008,01,04,07,40,978.12
2008,01,04,07,41,978.19
2008,01,04,07,42,978.16
2008,01,04,07,43,978.12
2008,01,04,07,44,978.02
2008,01,04,07,45,977.99
2008,01,04,07,46,977.92
2008,01,04,07,47,977.82
2008,01,04,07,48,977.82
2008,01,04,07,49,977.79
2008,01,04,07,50,977.79
2008,01,04,07,51,977.79
2008,01,04,07,52,977.79
2008,01,04,07,53,977.79
2008,01,04,07,54,977.79
2008,01,04,07,55,977.79
2008,01,04,07,56,977.72
2008,01,04,07,57,977.68
2008,01,04,07,58,977.68
2008,01,04,07,59,977.62
2008,01,04,08,00,977.55
2008,01,04,08,01,977.52
2008,01,04,08,02,977.45
2008,01,04,08,03,977.45
2008,01,04,08,04,977.32
2008,01,04,08,05,977.31
2008,01,04,08,06,977.31
2008,01,04,08,07,977.28
2008,01,04,08,08,977.31
2008,01,04,08,09,977.24
2008,01,04,08,10,977.28
2008,01,04,08,11,977.35
2008,01,04,08,12,977.38
2008,01,04,08,13,977.38
2008,01,04,08,14,977.41
2008,01,04,08,15,977.35
2008,01,04,08,16,977.35
2008,01,04,08,17,977.28
2008,01,04,08,18,977.24
2008,01,04,08,19,977.18
2008,01,04,08,20,977.18
2008,01,04,08,21,977.21
2008,01,04,08,22,977.18
2008,01,04,08,23,977.02
2008,01,04,08,24,977.01
2008,01,04,08,25,976.97
2008,01,04,08,26,976.87
2008,01,04,08,27,976.80
2008,01,04,08,28,976.74
2008,01,04,08,29,976.70
2008,01,04,08,30,976.74
2008,01,04,08,31,976.67
2008,01,04,08,32,976.63
2008,01,04,08,33,976.57
2008,01,04,08,34,976.60
2008,01,04,08,35,976.60
2008,01,04,08,36,976.53
2008,01,04,08,37,976.53
2008,01,04,08,38,976.53
2008,01,04,08,39,976.57
2008,01,04,08,40,976.57
2008,01,04,08,41,976.47
2008,01,04,08,42,976.47
2008,01,04,08,43,976.40
2008,01,04,08,44,976.33
2008,01,04,08,45,976.36
2008,01,04,08,46,976.36
2008,01,04,08,47,976.40
2008,01,04,08,48,976.43
2008,01,04,08,49,976.36
2008,01,04,08,50,976.30
2008,01,04,08,51,976.26
2008,01,04,08,52,976.26
2008,01,04,08,53,976.26
2008,01,04,08,54,976.26
2008,01,04,08,55,976.23
2008,01,04,08,56,976.19
2008,01,04,08,57,976.30
2008,01,04,08,58,976.30
2008,01,04,08,59,976.23
2008,01,04,09,00,976.19
2008,01,04,09,01,976.23
2008,01,04,09,02,976.16
2008,01,04,09,03,976.19
2008,01,04,09,04,976.19
2008,01,04,09,05,976.16
2008,01,04,09,06,976.06
2008,01,04,09,07,976.09
2008,01,04,09,08,976.03
2008,01,04,09,09,975.99
2008,01,04,09,10,975.96
2008,01,04,09,11,975.99
2008,01,04,09,12,975.99
2008,01,04,09,13,975.92
2008,01,04,09,14,975.89
2008,01,04,09,15,975.82
2008,01,04,09,16,975.82
2008,01,04,09,17,975.89
2008,01,04,09,18,975.92
2008,01,04,09,19,975.89
2008,01,04,09,20,975.86
2008,01,04,09,21,975.89
2008,01,04,09,22,975.89
2008,01,04,09,23,975.89
2008,01,04,09,24,975.86
2008,01,04,09,25,975.86
2008,01,04,09,26,975.79
2008,01,04,09,27,975.72
2008,01,04,09,28,975.82
2008,01,04,09,29,975.86
2008,01,04,09,30,975.79
2008,01,04,09,31,975.69
2008,01,04,09,32,975.69
2008,01,04,09,33,975.75
2008,01,04,09,34,975.72
2008,01,04,09,35,975.62
2008,01,04,09,36,975.62
2008,01,04,09,37,975.59
2008,01,04,09,38,975.62
2008,01,04,09,39,975.55
2008,01,04,09,40,975.52
2008,01,04,09,41,975.52
2008,01,04,09,42,975.45
2008,01,04,09,43,975.29
2008,01,04,09,44,975.31
2008,01,04,09,45,975.35
2008,01,04,09,46,975.38
2008,01,04,09,47,975.35
2008,01,04,09,48,975.35
2008,01,04,09,49,975.28
2008,01,04,09,50,975.09
2008,01,04,09,51,975.08
2008,01,04,09,52,975.24
2008,01,04,09,53,975.11
2008,01,04,09,54,974.91
2008,01,04,09,55,974.91
2008,01,04,09,56,974.84
2008,01,04,09,57,974.84
2008,01,04,09,58,974.84
2008,01,04,09,59,974.81
2008,01,04,10,00,974.84
2008,01,04,10,01,974.90
2008,01,04,10,02,974.94
2008,01,04,10,03,974.87
2008,01,04,10,04,974.71
2008,01,04,10,05,974.54
2008,01,04,10,06,974.40
2008,01,04,10,07,974.50
2008,01,04,10,08,974.59
2008,01,04,10,09,974.64
2008,01,04,10,10,974.54
2008,01,04,10,11,974.60
2008,01,04,10,12,974.70
2008,01,04,10,13,974.57
2008,01,04,10,14,974.54
2008,01,04,10,15,974.54
2008,01,04,10,16,974.54
2008,01,04,10,17,974.60
2008,01,04,10,18,974.57
2008,01,04,10,19,974.64
2008,01,04,10,20,974.54
2008,01,04,10,21,974.64
2008,01,04,10,22,974.67
2008,01,04,10,23,974.60
2008,01,04,10,24,974.64
2008,01,04,10,25,974.60
2008,01,04,10,26,974.67
2008,01,04,10,27,974.60
2008,01,04,10,28,974.57
2008,01,04,10,29,974.60
2008,01,04,10,30,974.60
2008,01,04,10,31,974.60
2008,01,04,10,32,974.50
2008,01,04,10,33,974.43
2008,01,04,10,34,974.31
2008,01,04,10,35,974.07
2008,01,04,10,36,973.89
2008,01,04,10,37,973.72
2008,01,04,10,38,973.60
2008,01,04,10,39,973.65
2008,01,04,10,40,973.69
2008,01,04,10,41,973.65
2008,01,04,10,42,973.62
2008,01,04,10,43,973.79
2008,01,04,10,44,973.82
2008,01,04,10,45,973.93
2008,01,04,10,46,973.86
2008,01,04,10,47,973.89
2008,01,04,10,48,973.89
2008,01,04,10,49,973.86
2008,01,04,10,50,973.86
2008,01,04,10,51,973.79
2008,01,04,10,52,973.89
2008,01,04,10,53,973.77
2008,01,04,10,54,973.63
2008,01,04,10,55,973.65
2008,01,04,10,56,973.59
2008,01,04,10,57,973.52
2008,01,04,10,58,973.59
2008,01,04,10,59,973.52
2008,01,04,11,00,973.55
2008,01,04,11,01,973.55
2008,01,04,11,02,973.52
2008,01,04,11,03,973.49
2008,01,04,11,04,973.35
2008,01,04,11,05,973.28
2008,01,04,11,06,973.25
2008,01,04,11,07,973.25
2008,01,04,11,08,973.21
2008,01,04,11,09,973.28
2008,01,04,11,10,973.25
2008,01,04,11,11,973.21
2008,01,04,11,12,973.21
2008,01,04,11,13,973.11
2008,01,04,11,14,973.11
2008,01,04,11,15,973.05
2008,01,04,11,16,972.98
2008,01,04,11,17,972.98
2008,01,04,11,18,972.84
2008,01,04,11,19,972.88
2008,01,04,11,20,972.88
2008,01,04,11,21,972.91
2008,01,04,11,22,972.94
2008,01,04,11,23,972.91
2008,01,04,11,24,972.88
2008,01,04,11,25,972.88
2008,01,04,11,26,972.78
2008,01,04,11,27,972.77
2008,01,04,11,28,972.74
2008,01,04,11,29,972.74
2008,01,04,11,30,972.74
2008,01,04,11,31,972.81
2008,01,04,11,32,972.74
2008,01,04,11,33,972.81
2008,01,04,11,34,972.81
2008,01,04,11,35,972.88
2008,01,04,11,36,972.75
2008,01,04,11,37,972.64
2008,01,04,11,38,972.64
2008,01,04,11,39,972.71
2008,01,04,11,40,972.74
2008,01,04,11,41,972.74
2008,01,04,11,42,972.74
2008,01,04,11,43,972.77
2008,01,04,11,44,972.81
2008,01,04,11,45,972.77
2008,01,04,11,46,972.81
2008,01,04,11,47,972.88
2008,01,04,11,48,972.77
2008,01,04,11,49,972.81
2008,01,04,11,50,972.81
2008,01,04,11,51,972.74
2008,01,04,11,52,972.77
2008,01,04,11,53,972.74
2008,01,04,11,54,972.74
2008,01,04,11,55,972.74
2008,01,04,11,56,972.77
2008,01,04,11,57,972.74
2008,01,04,11,58,972.81
2008,01,04,11,59,972.74
2008,01,04,12,00,972.61
2008,01,04,12,01,972.71
2008,01,04,12,02,972.67
2008,01,04,12,03,972.64
2008,01,04,12,04,972.74
2008,01,04,12,05,972.74
2008,01,04,12,06,972.65
2008,01,04,12,07,972.67
2008,01,04,12,08,972.67
2008,01,04,12,09,972.81
2008,01,04,12,10,972.74
2008,01,04,12,11,972.64
2008,01,04,12,12,972.57
2008,01,04,12,13,972.57
2008,01,04,12,14,972.54
2008,01,04,12,15,972.57
2008,01,04,12,16,972.61
2008,01,04,12,17,972.40
2008,01,04,12,18,972.40
2008,01,04,12,19,972.40
2008,01,04,12,20,972.44
2008,01,04,12,21,972.50
2008,01,04,12,22,972.44
2008,01,04,12,23,972.30
2008,01,04,12,24,972.30
2008,01,04,12,25,972.23
2008,01,04,12,26,972.33
2008,01,04,12,27,972.40
2008,01,04,12,28,972.40
2008,01,04,12,29,972.37
2008,01,04,12,30,972.44
2008,01,04,12,31,972.47
2008,01,04,12,32,972.40
2008,01,04,12,33,972.44
2008,01,04,12,34,972.40
2008,01,04,12,35,972.40
2008,01,04,12,36,972.40
2008,01,04,12,37,972.37
2008,01,04,12,38,972.40
2008,01,04,12,39,972.44
2008,01,04,12,40,972.47
2008,01,04,12,41,972.40
2008,01,04,12,42,972.33
2008,01,04,12,43,972.37
2008,01,04,12,44,972.50
2008,01,04,12,45,972.47
2008,01,04,12,46,972.37
2008,01,04,12,47,972.40
2008,01,04,12,48,972.44
2008,01,04,12,49,972.47
2008,01,04,12,50,972.50
2008,01,04,12,51,972.54
2008,01,04,12,52,972.61
2008,01,04,12,53,972.61
2008,01,04,12,54,972.61
2008,01,04,12,55,972.67
2008,01,04,12,56,972.57
2008,01,04,12,57,972.57
2008,01,04,12,58,972.54
2008,01,04,12,59,972.47
2008,01,04,13,00,972.54
2008,01,04,13,01,972.57
2008,01,04,13,02,972.50
2008,01,04,13,03,972.40
2008,01,04,13,04,972.33
2008,01,04,13,05,972.37
2008,01,04,13,06,972.40
2008,01,04,13,07,972.34
2008,01,04,13,08,972.37
2008,01,04,13,09,972.37
2008,01,04,13,10,972.27
2008,01,04,13,11,972.27
2008,01,04,13,12,972.14
2008,01,04,13,13,972.20
2008,01,04,13,14,972.27
2008,01,04,13,15,972.30
2008,01,04,13,16,972.27
2008,01,04,13,17,972.37
2008,01,04,13,18,972.37
2008,01,04,13,19,972.44
2008,01,04,13,20,972.40
2008,01,04,13,21,972.47
2008,01,04,13,22,972.47
2008,01,04,13,23,972.50
2008,01,04,13,24,972.54
2008,01,04,13,25,972.57
2008,01,04,13,26,972.57
2008,01,04,13,27,972.64
2008,01,04,13,28,972.61
2008,01,04,13,29,972.57
2008,01,04,13,30,972.57
2008,01,04,13,31,972.61
2008,01,04,13,32,972.64
2008,01,04,13,33,972.61
2008,01,04,13,34,972.57
2008,01,04,13,35,972.50
2008,01,04,13,36,972.40
2008,01,04,13,37,972.30
2008,01,04,13,38,972.23
2008,01,04,13,39,972.23
2008,01,04,13,40,972.20
2008,01,04,13,41,972.20
2008,01,04,13,42,972.16
2008,01,04,13,43,972.20
2008,01,04,13,44,972.10
2008,01,04,13,45,972.10
2008,01,04,13,46,972.06
2008,01,04,13,47,972.10
2008,01,04,13,48,972.20
